When you browse on this site, cookies collect data to enhance your experience and personalize the content and advertising you see.
Visit our Privacy Policy to learn more. By continuing to use the site, you agree to this use of cookies and data.
  • In Hungary
  • List of Countries
  • For 7 days
  • Water Temperature
  • Weather Map
  • News
  • Weather Widgets
  • user-avatar
    Login

    Hourly Weather Yarugino

    Today, 19 January, Sunday

    Time Temperature Precipitation Wind Pressure Humidity
    00:00 -3°C° 0 mm 4 mps 750 mmHg 83%
    01:00 -3°C° 0 mm 4 mps 750 mmHg 84%
    02:00 -3°C° 0 mm 4 mps 751 mmHg 85%
    03:00 -3°C° 0 mm 4 mps 751 mmHg 92%
    04:00 -3°C° 0 mm 4 mps 751 mmHg 92%
    05:00 -3°C° 0 mm 4 mps 752 mmHg 92%
    06:00 -3°C° 0 mm 4 mps 752 mmHg 92%
    07:00 -3°C° 0 mm 4 mps 752 mmHg 92%
    08:00 -3°C° 0 mm 4 mps 752 mmHg 92%
    09:00 -3°C° 0 mm 4 mps 753 mmHg 92%
    10:00 -2°C° 0 mm 4 mps 753 mmHg 91%
    11:00 -2°C° 0 mm 4 mps 753 mmHg 90%
    12:00 -1°C° 0 mm 4 mps 753 mmHg 89%
    13:00 -1°C° 0 mm 4 mps 753 mmHg 87%
    14:00 -1°C° 0 mm 4 mps 753 mmHg 85%
    15:00 -1°C° 0 mm 4 mps 753 mmHg 83%
    16:00 -1°C° 0 mm 4 mps 754 mmHg 82%
    17:00 -1°C° 0 mm 4 mps 754 mmHg 82%
    18:00 -1°C° 0 mm 5 mps 754 mmHg 82%
    19:00 -1°C° 0 mm 5 mps 753 mmHg 84%
    20:00 -1°C° 0 mm 5 mps 753 mmHg 86%
    21:00 -1°C° 0 mm 5 mps 753 mmHg 89%
    22:00 -1°C° 0 mm 5 mps 753 mmHg 90%
    23:00 -1°C° 0 mm 5 mps 753 mmHg 91%

    Tomorrow, 20 January, Monday

    Time Temperature Precipitation Wind Pressure Humidity
    00:00 -2°C° 0 mm 6 mps 753 mmHg 93%
    01:00 -2°C° 0 mm 6 mps 753 mmHg 91%
    02:00 -2°C° 0 mm 6 mps 753 mmHg 89%
    03:00 -1°C° 0 mm 6 mps 753 mmHg 87%
    04:00 -1°C° 0 mm 6 mps 753 mmHg 89%
    05:00 -1°C° 0 mm 6 mps 752 mmHg 91%
    06:00 -1°C° 0 mm 6 mps 752 mmHg 93%
    07:00 -2°C° 0.1 mm 6 mps 753 mmHg 94%
    08:00 -1°C° 0.1 mm 5 mps 753 mmHg 95%
    09:00 -1°C° 0.1 mm 5 mps 753 mmHg 96%
    10:00 -1°C° 0.3 mm 5 mps 753 mmHg 96%
    11:00 -1°C° 0.3 mm 5 mps 753 mmHg 95%
    12:00 -1°C° 0.3 mm 5 mps 753 mmHg 94%
    13:00 -1°C° 0.2 mm 5 mps 753 mmHg 95%
    14:00 -1°C° 0.2 mm 5 mps 753 mmHg 95%
    15:00 -1°C° 0.2 mm 5 mps 753 mmHg 95%
    16:00 -1°C° 0 mm 5 mps 752 mmHg 95%
    17:00 -1°C° 0 mm 5 mps 752 mmHg 95%
    18:00 -1°C° 0 mm 5 mps 751 mmHg 95%
    19:00 -1°C° 0 mm 5 mps 751 mmHg 93%
    20:00 -2°C° 0 mm 6 mps 751 mmHg 92%
    21:00 -1°C° 0 mm 6 mps 750 mmHg 90%
    22:00 -2°C° 0 mm 6 mps 750 mmHg 89%
    23:00 -2°C° 0 mm 6 mps 749 mmHg 88%

    Day after tomorrow, 21 January, Tuesday

    Time Temperature Precipitation Wind Pressure Humidity
    00:00 -3°C° 0 mm 6 mps 749 mmHg 88%
    01:00 -3°C° 0.1 mm 6 mps 748 mmHg 89%
    02:00 -3°C° 0.1 mm 6 mps 748 mmHg 90%
    03:00 -3°C° 0.1 mm 6 mps 747 mmHg 92%
    04:00 -3°C° 0.6 mm 6 mps 746 mmHg 93%
    05:00 -3°C° 0.6 mm 7 mps 745 mmHg 94%
    06:00 -3°C° 0.6 mm 7 mps 744 mmHg 95%
    07:00 -2°C° 0.5 mm 7 mps 743 mmHg 94%
    08:00 -2°C° 0.5 mm 7 mps 742 mmHg 93%
    09:00 -1°C° 0.5 mm 7 mps 741 mmHg 91%
    10:00 -1°C° 0 mm 7 mps 741 mmHg 91%
    11:00 0°C° 0 mm 7 mps 740 mmHg 90%
    12:00 0°C° 0 mm 7 mps 740 mmHg 89%
    13:00 +2°C° 0.1 mm 7 mps 739 mmHg 89%
    14:00 +2°C° 0.1 mm 7 mps 739 mmHg 89%
    15:00 +2°C° 0.1 mm 6 mps 739 mmHg 88%
    16:00 +2°C° 0 mm 6 mps 738 mmHg 88%
    17:00 +2°C° 0 mm 6 mps 738 mmHg 87%
    18:00 +2°C° 0 mm 6 mps 738 mmHg 86%
    19:00 +1°C° 0.4 mm 5 mps 737 mmHg 89%
    20:00 +1°C° 0.4 mm 5 mps 737 mmHg 93%
    21:00 +1°C° 0.4 mm 4 mps 736 mmHg 96%
    22:00 0°C° 0.5 mm 5 mps 736 mmHg 95%
    23:00 0°C° 0.5 mm 5 mps 735 mmHg 94%

    22 January, Wednesday

    Time Temperature Precipitation Wind Pressure Humidity
    00:00 0°C° 0.5 mm 5 mps 735 mmHg 93%
    01:00 -2°C° 0.1 mm 6 mps 735 mmHg 89%
    02:00 -3°C° 0.1 mm 6 mps 736 mmHg 84%
    03:00 -3°C° 0.1 mm 6 mps 736 mmHg 80%
    04:00 -4°C° 0 mm 6 mps 736 mmHg 79%
    05:00 -4°C° 0 mm 6 mps 735 mmHg 79%
    06:00 -4°C° 0 mm 6 mps 735 mmHg 79%
    07:00 -4°C° 0 mm 6 mps 735 mmHg 79%
    08:00 -4°C° 0 mm 5 mps 735 mmHg 80%
    09:00 -4°C° 0 mm 5 mps 734 mmHg 80%
    10:00 -4°C° 0 mm 6 mps 734 mmHg 79%
    11:00 -4°C° 0 mm 6 mps 734 mmHg 77%
    12:00 -3°C° 0 mm 6 mps 734 mmHg 75%
    13:00 -3°C° 0.1 mm 6 mps 734 mmHg 75%
    14:00 -2°C° 0.1 mm 5 mps 734 mmHg 74%
    15:00 -2°C° 0.1 mm 5 mps 733 mmHg 73%
    16:00 -4°C° 0 mm 5 mps 734 mmHg 76%
    17:00 -4°C° 0 mm 5 mps 734 mmHg 78%
    18:00 -5°C° 0 mm 5 mps 734 mmHg 80%
    19:00 -5°C° 0 mm 5 mps 734 mmHg 82%
    20:00 -5°C° 0 mm 5 mps 734 mmHg 83%
    21:00 -5°C° 0 mm 5 mps 735 mmHg 84%
    22:00 -5°C° 0 mm 5 mps 735 mmHg 82%
    23:00 -5°C° 0 mm 5 mps 736 mmHg 80%

    23 January, Thursday

    Time Temperature Precipitation Wind Pressure Humidity
    00:00 -5°C° 0 mm 5 mps 736 mmHg 79%
    01:00 -6°C° 0.1 mm 6 mps 736 mmHg 78%
    02:00 -7°C° 0.1 mm 7 mps 737 mmHg 77%
    03:00 -8°C° 0.1 mm 7 mps 738 mmHg 76%
    04:00 -8°C° 0 mm 7 mps 738 mmHg 72%
    05:00 -9°C° 0 mm 7 mps 739 mmHg 69%
    06:00 -11°C° 0 mm 7 mps 739 mmHg 66%
    07:00 -11°C° 0 mm 7 mps 740 mmHg 63%
    08:00 -11°C° 0 mm 7 mps 740 mmHg 61%
    09:00 -11°C° 0 mm 7 mps 741 mmHg 59%
    10:00 -11°C° 0 mm 7 mps 741 mmHg 59%
    11:00 -11°C° 0 mm 7 mps 741 mmHg 60%
    12:00 -9°C° 0 mm 7 mps 742 mmHg 61%
    13:00 -11°C° 0 mm 7 mps 742 mmHg 61%
    14:00 -11°C° 0 mm 7 mps 742 mmHg 61%
    15:00 -11°C° 0 mm 7 mps 743 mmHg 61%
    16:00 -10°C° 0 mm 6 mps 743 mmHg 61%
    17:00 -10°C° 0 mm 5 mps 744 mmHg 62%
    18:00 -11°C° 0 mm 5 mps 744 mmHg 63%
    19:00 -10°C° 0 mm 4 mps 744 mmHg 64%
    20:00 -10°C° 0 mm 4 mps 744 mmHg 65%
    21:00 -10°C° 0 mm 4 mps 745 mmHg 66%
    22:00 -9°C° 0 mm 3 mps 745 mmHg 67%
    23:00 -9°C° 0 mm 3 mps 745 mmHg 68%

    24 January, Friday

    Time Temperature Precipitation Wind Pressure Humidity
    00:00 -9°C° 0 mm 2 mps 745 mmHg 69%
    01:00 -9°C° 0 mm 3 mps 744 mmHg 72%
    02:00 -9°C° 0 mm 3 mps 743 mmHg 75%
    03:00 -8°C° 0 mm 3 mps 743 mmHg 78%
    04:00 -9°C° 0 mm 4 mps 742 mmHg 82%
    05:00 -8°C° 0 mm 4 mps 741 mmHg 85%
    06:00 -8°C° 0 mm 5 mps 740 mmHg 89%
    07:00 -7°C° 0.3 mm 5 mps 738 mmHg 91%
    08:00 -8°C° 0.3 mm 6 mps 737 mmHg 92%
    09:00 -6°C° 0.3 mm 6 mps 736 mmHg 94%
    10:00 -6°C° 0.5 mm 6 mps 735 mmHg 94%
    11:00 -5°C° 0.5 mm 6 mps 734 mmHg 94%
    12:00 -5°C° 0.5 mm 6 mps 734 mmHg 95%
    13:00 -4°C° 0.2 mm 6 mps 733 mmHg 95%
    14:00 -2°C° 0.2 mm 5 mps 733 mmHg 94%
    15:00 -1°C° 0.2 mm 5 mps 733 mmHg 94%
    16:00 -2°C° 0 mm 5 mps 733 mmHg 91%
    17:00 -3°C° 0 mm 6 mps 733 mmHg 88%
    18:00 -3°C° 0 mm 6 mps 734 mmHg 85%
    19:00 -4°C° 0 mm 6 mps 734 mmHg 85%
    20:00 -4°C° 0 mm 6 mps 734 mmHg 85%
    21:00 -5°C° 0 mm 6 mps 735 mmHg 85%
    22:00 -5°C° 0 mm 6 mps 735 mmHg 83%
    23:00 -5°C° 0 mm 6 mps 735 mmHg 82%
    Show more